User: anonymous   Login
Location: Bishop�s Knoyle
(51.0728°N, 2.1714°W)
Time: 15:03:33
(UTC+00:00)
Language:

Cosmos 372 Rocket - Orbit

View from above orbital plane
View from above orbital plane
View from above satellite
View from above satellite

Ground track
Ground track

The orbit data is extracted from the following two-line orbital elements,

1 04589U 70086B   20339.87411304  .00000140  00000-0  50944-4 0  9993
2 04589  74.0585 135.0989 0020272  28.2785 331.9467 14.41612396629307
Epoch (UTC): 04 December 2020 20:58:43
Eccentricity: 0.0020272
inclination: 74.0585°
perigee height: 739 km
apogee height: 767 km
right ascension of ascending node: 135.0989°
argument of perigee: 28.2785°
revolutions per day: 14.41612396
mean anomaly at epoch: 331.9467°
orbit number at epoch: 62930

The dashed part of the orbit path shows where the satellite is in the earth's shadow,  

DLR